Location: Newark
(33.6333°S, 78.8500°W)
Time: 04:41:05
(UTC+00:00)

Vanguard 1 - Pass Details

Date: 24 September 2019
Orbit: 653 x 3830 km, 34.2° (Epoch: 22 October)

Event Time Altitude Azimuth Distance (km) Brightness Sun altitude
Rises 00:42:40 0° 259° (W) 3,944 14.8 -19.4°
Reaches altitude 10° 00:45:00 10° 265° (W) 3,249 13.9 -19.9°
Maximum altitude 00:52:57 48° 337° (NNW) 2,293 11.9 -21.5°
Enters shadow 01:02:42 20° 38° (NE) 4,437 12.9 -23.4°
